SCOUT X-4 R/B, 809

Orbit data source: Space-Track

SCOUT X-4 R/B, 809 is space debris in LEO originally from a launch on Thu, 04 Jun 1964 UTC launched from the Air Force Western Test Range (AFWTR). Debris objects in space refer to the collection of defunct objects orbiting the Earth. Examples of debris include non-operational satellites, rocket bodies, and fragments generated from explosions, collisions, or faulty payload assembly.

Loading next visibility...
SCOUT X-4 R/B details
Identifier
809, 1964-026D
Orbit
LEO
Last TLE update16 hours ago
Origin
Flag of USNASA LaRC (US)
ManufacturerABL
MissionSpacecraft
Bus & MotorALTAIR, Unknown motor
Mass33 kg wet, 33 kg dry
Launch date (UTC)
1964-06-04 (61 years ago)
Launch vehicleUnknown
Launch site
Air Force Western Test Range (AFWTR)
Object type
Payload
Rocket body
Debris
Shape & HBRCyl, 1.5 m
Radar Cross Section0.687 m², Medium (>0.1 m² and < 1m²)

Expand to show TLE details & history

TLE from 16 hours ago
0 SCOUT X-4 R/B
1 00809U 64026D   24355.82918392  .00000640  00000-0  35304-3 0  9994
2 00809  90.4598 150.3754 0039910   5.0666 355.0914 14.10359113101540
Epoch: 2024-12-20T19:54Z
Definitive object data (Epoch: 2024-12-20T19:54:01.49Z)
Latitude-0.00008°
Longitude121.98011°
Altitude832.404 km
Speed7.451 km/s
True Right ascension10h 01m 30s
True Declination0° 00' 00"
Sunlit
Object was in daylight at TLE epoch
Visualization TLE readout
Latitude81.48478°
Longitude118.95735°
Altitude865.85 km
Speed7.429 km/s
Apparent Right ascension22h 51m 38s
Apparent Declination38° 33' 22"
Sunlit
Object is in partial shadow
Visualization observer readout
Local Sidereal Time10:38:07
Azimuth357.307° N
Elevation-11.467°
Doppler factor1
Orbital elements
Apogee altitude883.974 km
Perigee altitude826.238 km
Semi-major axis7,233.243 km
Eccentricity0.003991
Inclination90.4598°
RAAN150.3754°
Arg. of periapsis5.0666°
True anomaly355.05207°
Mean anomaly355.0914°
Eccentric anomaly355.07176°
Mean motion3.52812 °/min
BSTAR0.00035304
Orbital period102.04 mins
Loading maneuver chart data...
Loading historical data...
Loading historical data...
Loading historical data...
Loading historical data...
Loading historical data...
Loading historical data...
Loading historical data...

SCOUT X-4 R/B Visibility forecast

Observer location: undefined°, undefined

Span
Click to sort rows by Start time (UTC) header in descending order
Start Az.
Max El. time (UTC)
Max El. Az.
Max El.
End time (UTC)
End Az.
9 mins2024-12-21 22:01:27.951Z25.904° NE2024-12-21 22:06:27.951Z92.088° ESE26.749°2024-12-21 22:10:27.951Z142.352° SSE
8 mins2024-12-21 23:44:27.951Z334.635° NNW2024-12-21 23:47:27.951Z292.065° WNW28.833°2024-12-21 23:52:27.951Z221.577° SW
5 mins2024-12-22 09:31:27.951Z100.142° ESE2024-12-22 09:33:27.951Z75.638° E15.986°2024-12-22 09:36:27.951Z39.792° NE
8 mins2024-12-22 11:11:27.951Z195.968° SSW2024-12-22 11:15:27.951Z292.506° NW39.991°2024-12-22 11:19:27.951Z346.847° N
|